Tracking 30995 objects as of 7-Jul-2025
HD Live streaming from Space Station
objects crossing your sky now

NOAA 8

Track NOAA 8 now!
10-day predictions
NOAA 8 is classified as:


NORAD ID: 13923
Int'l Code: 1983-022A
Perigee: 789.6 km
Apogee: 810.6 km
Inclination: 98.7 °
Period: 100.7 minutes
Semi major axis: 7171 km
RCS: 5.054 m2 (large)
Launch date: March 28, 1983
Source: United States (US)
Launch site: AIR FORCE WESTERN TEST RANGE (AFWTR)

Uplink (MHz):
Downlink (MHz):
Beacon (MHz):
Mode:
Call sign:
Status:

Your satellite tracking list
STARLINK-1599
Track 1 satellite(s)




NASA's NSSDC Master Catalog

Two Line Element Set (TLE):
1 13923U 83022A   25187.62911270  .00000099  00000-0  56204-4 0  9993
2 13923  98.7365 194.6267 0014636 184.8549 175.2493 14.29641344201699
Source of the keplerian elements: AFSPC